Weather reports worldwide

Advertisment
Lampedusa, Italy (16490): temperature & dewpoint: 03.08.2020 21:00:00 - 09.08.2020 21:00:00 (CEST)Lampedusa, Italy (16490): wind speed: 03.08.2020 21:00:00 - 09.08.2020 21:00:00 (CEST)Lampedusa, Italy (16490): wind direction: 03.08.2020 21:00:00 - 09.08.2020 21:00:00 (CEST)Lampedusa, Italy (16490): reduced air pressure: 03.08.2020 21:00:00 - 09.08.2020 21:00:00 (CEST)Lampedusa, Italy (16490): visibility: 03.08.2020 21:00:00 - 09.08.2020 21:00:00 (CEST)Lampedusa, Italy (16490): precipitation: 03.08.2020 21:00:00 - 09.08.2020 21:00:00 (CEST)
Date & Time tt [°C] td [°C] ff [km/h] ff [kn] dd ppp [hPa] vv [km] rr [mm]
09.08.2020 21:00:00 26,0 24,0 9 5 N - 10 -
09.08.2020 20:00:00 26,2 23,6 16 9 N 1012,2 10 -
09.08.2020 19:00:00 27,0 23,0 16 9 N - 10 -
09.08.2020 18:00:00 28,0 22,0 18 10 NNW - 10 -
09.08.2020 17:00:00 28,1 21,9 18 10 NNW 1012,6 10 0,0
09.08.2020 16:00:00 28,0 23,0 16 9 N - 10 -
09.08.2020 15:00:00 28,0 23,0 16 9 N - 10 -
09.08.2020 14:00:00 28,3 22,3 24 13 N 1013,2 10 -
09.08.2020 13:00:00 28,0 22,0 22 12 N - 10 -
09.08.2020 12:00:00 28,0 22,0 24 13 N - 10 -
09.08.2020 11:00:00 27,4 22,9 24 13 N 1013,7 10 0,0
09.08.2020 10:00:00 27,0 23,0 26 14 N - 10 -
09.08.2020 09:00:00 26,0 23,0 26 14 N - 10 -
09.08.2020 08:00:00 25,8 22,7 26 14 N 1013,4 10 -
09.08.2020 07:00:00 25,0 23,0 24 13 N - 10 -
09.08.2020 06:00:00 25,0 22,0 22 12 NNW - 10 -
09.08.2020 05:00:00 25,3 22,2 22 12 NNW 1012,9 10 0,0
09.08.2020 04:00:00 25,0 22,0 22 12 NNW - 10 -
09.08.2020 03:00:00 26,0 22,0 24 13 NNW - 10 -
09.08.2020 02:00:00 25,5 21,8 28 15 NNW 1013,2 10 -
09.08.2020 01:00:00 26,0 22,0 28 15 NNW - 10 -
09.08.2020 00:00:00 26,0 23,0 21 11 NNW - 10 -
08.08.2020 23:00:00 25,6 23,0 21 11 N 1014,2 10 0,0
08.08.2020 22:00:00 26,0 23,0 24 13 NNW - 10 -
08.08.2020 21:00:00 26,0 23,0 22 12 NNW - 10 -
08.08.2020 20:00:00 26,4 22,0 18 10 NNW 1014,0 10 -
08.08.2020 19:00:00 27,0 22,0 24 13 NNW - 10 -
08.08.2020 18:00:00 27,0 22,0 28 15 NNW - 10 -
08.08.2020 17:00:00 27,7 22,3 26 14 N 1014,3 10 0,0
08.08.2020 16:00:00 28,0 22,0 26 14 N - 10 -
08.08.2020 15:00:00 28,0 21,0 28 15 NNW - 10 -
08.08.2020 14:00:00 28,2 20,9 26 14 NNW 1015,5 10 -
08.08.2020 13:00:00 28,0 20,0 26 14 NNW - 10 -
08.08.2020 12:00:00 28,0 20,0 31 17 NNW - 10 -
08.08.2020 11:00:00 27,7 19,7 26 14 NW 1016,2 10 0,0
08.08.2020 10:00:00 28,0 20,0 26 14 NNW - 10 -
08.08.2020 09:00:00 27,0 21,0 26 14 NNW - 10 -
08.08.2020 08:00:00 26,1 20,7 22 12 NNW 1016,0 10 -
08.08.2020 07:00:00 25,0 21,0 21 11 NNW - 10 -
08.08.2020 06:00:00 25,0 22,0 15 8 NNW - 10 -
08.08.2020 05:00:00 25,2 20,8 18 10 NNW 1015,5 10 0,0
08.08.2020 04:00:00 25,0 20,0 15 8 NNW - 10 -
08.08.2020 03:00:00 25,0 20,0 11 6 NW - 10 -
08.08.2020 02:00:00 25,0 20,7 13 7 NNW 1015,8 10 -
08.08.2020 01:00:00 25,0 22,0 11 6 NW - 10 -
08.08.2020 00:00:00 - - - - - - - -
07.08.2020 23:00:00 25,3 21,1 16 9 N 1016,0 10 0,0
07.08.2020 22:00:00 25,0 21,0 18 10 N - 10 -
07.08.2020 21:00:00 26,0 21,0 16 9 N - 10 -
07.08.2020 20:00:00 25,8 20,5 18 10 N 1015,5 10 -
07.08.2020 19:00:00 26,0 21,0 18 10 N - 10 -
07.08.2020 18:00:00 27,0 20,0 16 9 NNW - 10 -
07.08.2020 17:00:00 27,2 19,7 16 9 N 1015,7 10 0,0
07.08.2020 16:00:00 27,0 20,0 18 10 N - 10 -
07.08.2020 15:00:00 27,0 20,0 16 9 NNW - 10 -
07.08.2020 14:00:00 28,1 19,7 21 11 N 1016,1 10 -
07.08.2020 13:00:00 27,0 19,0 21 11 N - 10 -
07.08.2020 12:00:00 27,0 20,0 18 10 N - 10 -
07.08.2020 11:00:00 27,2 20,4 21 11 N 1016,2 10 0,0
07.08.2020 10:00:00 27,0 20,0 18 10 N - 10 -
07.08.2020 09:00:00 26,0 20,0 21 11 N - 10 -
07.08.2020 08:00:00 25,7 20,0 18 10 NNW 1015,7 10 -
07.08.2020 07:00:00 25,0 20,0 18 10 NNW - 10 -
07.08.2020 06:00:00 25,0 20,0 16 9 NNW - 10 -
07.08.2020 05:00:00 24,7 19,6 21 11 NNW 1014,6 10 0,0
07.08.2020 04:00:00 25,0 19,0 22 12 NNW - 10 -
07.08.2020 03:00:00 25,0 20,0 21 11 NNW - 10 -
07.08.2020 02:00:00 25,0 19,5 18 10 NNW 1015,1 10 -
07.08.2020 01:00:00 25,0 21,0 21 11 NNW - 10 -
07.08.2020 00:00:00 25,0 21,0 16 9 NNW - 10 -
06.08.2020 23:00:00 25,2 21,5 16 9 NNW 1015,0 10 0,0
06.08.2020 22:00:00 25,0 21,0 21 11 N - 10 -
06.08.2020 21:00:00 26,0 20,0 26 14 N - 10 -
06.08.2020 20:00:00 26,0 19,8 22 12 N 1013,9 10 -
06.08.2020 19:00:00 27,0 20,0 28 15 N - 10 -
06.08.2020 18:00:00 27,0 19,0 26 14 N - 10 -
06.08.2020 17:00:00 27,6 19,7 26 14 N 1013,6 10 0,0
06.08.2020 16:00:00 28,0 19,0 22 12 N - 10 -
06.08.2020 15:00:00 28,0 19,0 24 13 NNW - 10 -
06.08.2020 14:00:00 28,0 18,8 22 12 N 1013,9 10 -
06.08.2020 13:00:00 28,0 19,0 22 12 N - 10 -
06.08.2020 12:00:00 27,0 19,0 22 12 N - 10 -
06.08.2020 11:00:00 27,0 18,8 22 12 NNW 1013,8 10 0,0
06.08.2020 10:00:00 26,0 18,0 26 14 NNW - 10 -
06.08.2020 09:00:00 26,0 18,0 21 11 NNW - 10 -
06.08.2020 08:00:00 25,7 17,5 18 10 NNW 1012,7 10 -
06.08.2020 07:00:00 25,0 18,0 22 12 NNW - 10 -
06.08.2020 06:00:00 25,0 19,0 22 12 NNW - 10 -
06.08.2020 05:00:00 24,7 18,6 15 8 NNW 1012,2 10 0,0
06.08.2020 04:00:00 25,0 19,0 22 12 NNW - 10 -
06.08.2020 03:00:00 25,0 19,0 22 12 NNW - 10 -
06.08.2020 02:00:00 24,9 19,0 28 15 N 1012,0 10 -
06.08.2020 01:00:00 25,0 19,0 26 14 N - 10 -
06.08.2020 00:00:00 25,0 19,0 26 14 N - 10 -
05.08.2020 23:00:00 25,2 19,1 24 13 N 1011,9 10 0,0
05.08.2020 22:00:00 25,0 18,0 28 15 N - 10 -
05.08.2020 21:00:00 26,0 19,0 28 15 NNW - 10 -
05.08.2020 20:00:00 25,8 18,1 26 14 NNW 1011,1 10 -
05.08.2020 19:00:00 27,0 18,0 34 18 NNW - 10 -
05.08.2020 18:00:00 27,0 18,0 31 17 NNW - 10 -
05.08.2020 17:00:00 27,9 17,9 26 14 NNW 1010,9 10 0,0
05.08.2020 16:00:00 28,0 18,0 28 15 N - 10 -
05.08.2020 15:00:00 28,0 17,0 29 16 NNW - 10 -
05.08.2020 14:00:00 28,3 15,8 29 16 NNW 1011,7 10 -
05.08.2020 13:00:00 - - - - - - - -
05.08.2020 12:00:00 27,0 16,0 29 16 NNW - 10 -
05.08.2020 11:00:00 27,1 16,3 29 16 NNW 1011,8 10 0,0
05.08.2020 10:00:00 27,0 17,0 28 15 NNW - 10 -
05.08.2020 09:00:00 26,0 16,0 31 17 NNW - 10 -
05.08.2020 08:00:00 26,1 17,1 29 16 NNW 1011,3 10 -
05.08.2020 07:00:00 26,0 18,0 26 14 NNW - 10 -
05.08.2020 06:00:00 26,0 16,0 28 15 NNW - 10 -
05.08.2020 05:00:00 26,0 16,9 28 15 NNW 1010,8 10 0,0
05.08.2020 04:00:00 26,0 17,0 28 15 NNW - 10 -
05.08.2020 03:00:00 26,0 18,0 26 14 NNW - 10 -
05.08.2020 02:00:00 26,5 17,3 29 16 NNW 1011,2 10 -
05.08.2020 01:00:00 27,0 19,0 26 14 NNW - 10 -
05.08.2020 00:00:00 26,0 20,0 28 15 NNW - 10 -
04.08.2020 23:00:00 26,4 21,1 24 13 N 1011,3 10 0,0
04.08.2020 22:00:00 27,0 21,0 26 14 N - 10 -
04.08.2020 21:00:00 27,0 21,0 29 16 N - 10 -
04.08.2020 20:00:00 26,8 19,9 31 17 N 1010,2 10 -
04.08.2020 19:00:00 28,0 20,0 34 18 N - 10 -
04.08.2020 18:00:00 28,0 19,0 35 19 N - 10 -
04.08.2020 17:00:00 28,7 21,9 34 18 N 1009,8 10 0,0
04.08.2020 16:00:00 29,0 22,0 29 16 NNW - 10 -
04.08.2020 15:00:00 30,0 22,0 29 16 NNW - 10 -
04.08.2020 14:00:00 28,7 22,3 24 13 N 1011,0 10 -
04.08.2020 13:00:00 30,0 23,0 31 17 NNW - 10 -
04.08.2020 12:00:00 30,0 20,0 22 12 NNW - 10 -
04.08.2020 11:00:00 31,1 20,3 22 12 NNW 1010,9 10 0,0
04.08.2020 10:00:00 29,0 25,0 28 15 NNW - 10 -
04.08.2020 09:00:00 30,0 22,0 11 6 NW - 10 -
04.08.2020 08:00:00 28,8 25,0 8 4 W 1009,6 10 -
04.08.2020 07:00:00 28,0 25,0 5 3 S - 10 -
04.08.2020 06:00:00 27,0 24,0 8 4 SSW - 10 -
04.08.2020 05:00:00 27,4 24,1 8 4 SSE 1008,7 10 0,0
04.08.2020 04:00:00 27,0 24,0 5 3 ESE - 10 -
04.08.2020 03:00:00 28,0 24,0 11 6 NNE - 10 -
04.08.2020 02:00:00 27,8 24,1 13 7 N 1009,8 10 -
04.08.2020 01:00:00 28,0 24,0 28 15 N - 10 -
04.08.2020 00:00:00 28,0 25,0 21 11 N - 10 -
03.08.2020 23:00:00 28,4 24,3 15 8 ENE 1009,5 10 0,0
03.08.2020 22:00:00 29,0 23,0 11 6 ESE - 10 -
03.08.2020 21:00:00 29,0 22,0 8 4 E - 10 -

tt = temperature
td = dewpoint
ff = wind speed
dd = wind direction
ppp = reduced air pressure
vv = visibility
rr = precipitation

Next stations